Location: Unspecified
(0.0000°N, 1.0000°E)
Time: 16:02:59
(UTC+02:00)

Daily predictions for brighter satellites

Satellite Brightness Start Highest point End
(mag) Time Altitude Azimuth Time Altitude Azimuth Time Altitude Azimuth
ARIANE 5 R/B 2.7 20:00:30 10° WSW 20:03:37 52° S 20:17:59 10° E
ASTRO E2 2.7 20:20:27 10° SW 20:24:28 83° SE 20:28:27 10° ENE
SAR-Lupe-1 4.0 20:21:23 10° SSE 20:24:55 66° ENE 20:28:25 10° N
Cosmos 1844 4.1 20:21:17 10° S 20:26:36 41° ESE 20:31:57 10° NE
MSX 3.9 20:20:57 10° SSE 20:26:39 63° ENE 20:32:19 10° N
Cosmos 1933 4.4 20:27:27 10° NNE 20:30:53 26° E 20:34:19 10° SE
Abrixas 4.2 20:29:27 10° WSW 20:32:19 38° NW 20:35:10 10° NNE
FREGAT/IRIS 4.1 20:30:52 10° SE 20:33:15 20° E 20:35:38 10° NNE
Cosmos 1356 Rocket 4.1 20:30:10 10° SSE 20:33:52 32° E 20:37:38 10° NNE
Ariane H10 2.4 20:35:03 10° W 20:37:27 65° S 20:44:09 11° E
SJ-6B 3.2 20:34:12 10° SSE 20:38:10 47° ENE 20:42:03 10° N
IDEFIX/ARIANE 42P 3.4 20:33:45 10° S 20:38:52 54° WSW 20:43:56 10° NNW
Cosmos 1869 3.5 20:37:49 10° N 20:41:45 73° W 20:45:41 10° S
Cosmos 1455 3.3 20:38:26 10° NNW 20:42:11 47° W 20:45:56 10° SSW
Cosmos 1943 3.8 20:38:16 10° N 20:43:19 35° ENE 20:48:21 10° SE
Cosmos 494 Rocket 4.2 20:40:09 10° N 20:45:08 48° ENE 20:50:06 10° SSE
GPS 2-15 Rocket1 4.4 20:43:46 10° W 20:48:11 32° SSW 20:52:11 12° SE
HJ-1C 4.5 20:46:48 13° SE 20:49:04 26° E 20:51:53 10° NNE
Sylda 5 2.3 20:49:07 10° W 20:52:34 79° N 20:58:32 11° E
CZ-4C R/B 3.5 20:51:26 10° NNW 20:59:13 63° WSW 21:06:57 10° SSE
Resurs 01 Rocket 1.9 20:56:15 10° SSE 21:00:28 46° ENE 21:04:39 10° N
USA 234 4.4 21:02:00 19° ESE 21:03:18 20° SE 21:07:47 10° S
Meteor 2-3 Rocket 4.4 21:00:20 10° SSW 21:05:55 57° W 21:11:24 10° N
Cosmos 389 Rocket 2.4 21:04:02 10° N 21:07:33 89° W 21:11:08 10° S
GPS 2-18 Rocket1 4.2 21:04:27 10° NW 21:07:46 30° NNE 21:09:17 22° ENE
ARIANE 5 DEB (SYLDA) 3.3 21:03:41 10° W 21:08:31 70° N 21:10:57 21° ENE
TIMED 4.4 21:04:39 10° S 21:09:01 85° E 21:13:22 10° NNE
GPS 2-17 Rocket1 4.4 21:05:04 10° NW 21:09:12 29° NNE 21:11:39 19° ENE
Ariane H10-3 3.3 20:47:50 10° W 21:10:18 64° S 21:12:47 27° ESE
Cosmos 1452 Rocket 3.4 21:10:43 10° S 21:15:58 85° ESE 21:21:14 10° NNE
Cosmos 1703 Rocket 3.7 21:12:09 10° N 21:16:36 76° W 21:21:03 10° S
CENTAUR R/B 4.3 21:12:15 10° NNE 21:17:56 20° ENE 21:19:13 19° ENE
OAO 1 4.4 21:14:29 10° SW 21:19:59 77° SE 21:23:45 21° ENE
GPS 2-04 Rocket1 3.6 21:19:58 10° SSW 21:23:26 35° SSE 21:23:26 35° SSE
Cosmos 1733 Rocket 3.2 21:20:35 10° S 21:25:01 76° W 21:29:25 10° N
Cosmos 2154 Rocket 4.4 21:22:45 26° SE 21:25:27 38° E 21:31:08 10° NNE
NOSS 3-2 (C) 4.2 21:17:31 10° NNW 21:25:39 81° WSW 21:32:48 14° SSE
deb Ariane 4.0 21:28:31 10° WSW 21:29:41 20° SW 21:29:41 20° SW
Cosmos 2184 Rocket 4.1 21:25:29 10° S 21:31:38 75° W 21:37:46 10° N
ARIANE 5 R/B 2.5 21:30:46 10° W 21:33:42 85° N 21:36:47 35° E
SWIFT 3.4 21:29:42 10° W 21:33:45 41° NNW 21:35:32 27° NNE
Meteor 1-26 Rocket 4.3 21:29:42 10° N 21:35:35 83° W 21:40:44 14° S
Lacrosse 5 2.4 21:36:11 10° SSW 21:39:42 40° S 21:39:42 40° S
Lacrosse 5 rocket 1.3 21:39:10 10° SSW 21:43:33 83° WNW 21:43:39 81° NNW
FengYun 1-2 T 4.2 21:46:18 33° S 21:48:55 81° WSW 21:54:31 10° NNW
Resurs 1-3 4.4 21:47:25 29° SSW 21:49:19 49° WSW 21:53:32 10° NNW
USA 215 3.4 21:51:54 48° ENE 21:52:39 50° NE 21:58:55 10° NNW
ATLAS 5 CENTAUR R/B 3.9 21:51:31 10° N 21:54:57 24° NE 21:54:57 24° NE
Ariane H10+ 3.7 21:54:10 10° WNW 21:59:11 65° NNE 22:47:40 10° E
Cosmos 2278 Rocket 4.1 21:59:44 10° SW 22:04:29 28° WNW 22:09:16 10° NNW
FENGYUN 3A 3.7 22:07:25 73° NNW 22:07:25 73° NNW 22:12:16 10° NNW
Ariane H10 4.3 22:00:44 10° W 22:18:04 61° SSW 22:18:56 59° SSE
Aurora 2 Rocket 4.0 22:10:48 10° WSW 22:20:38 75° NNW 22:21:47 65° NNE
ALOS 3.8 22:22:26 34° WNW 22:22:26 34° WNW 22:25:27 10° NNW
ARIANE 5 R/B 4.2 13:50:49 10° W 22:21:59 87° N 22:24:23 60° ENE
Meteor 2-10 Rocket 4.4 22:17:27 10° NNW 22:21:55 50° NW 22:21:55 50° NW
ARIANE 5 R/B 4.3 22:28:12 10° W 23:06:58 - E 22:30:23 44° WSW
ARIANE 5 R/B 4.3 22:28:11 10° W 23:06:58 - E 22:30:24 44° WSW
ARIANE 5 R/B 4.3 22:28:12 10° W 23:06:57 - E 22:30:23 44° WSW
ARIANE 5 R/B 4.3 22:28:12 10° W 22:30:23 43° WSW 22:30:23 43° WSW
ARIANE 5 R/B 4.3 22:28:11 10° W 23:06:57 - E 22:30:24 44° WSW
CENTAUR R/B 3.9 23:00:28 10° NW 23:06:27 46° WNW 23:06:27 46° WNW
Milstar 3 Cent rocket 4.0 23:02:50 10° WSW 23:13:32 52° W 23:13:32 52° W
